TimeMST,TemperatureF,Dew PointF,Humidity,Sea Level PressureIn,VisibilityMPH,Wind Direction,Wind SpeedMPH,Gust SpeedMPH,PrecipitationIn,Events,Conditions,WindDirDegrees,DateUTC
12:15 AM,30.6,20.3,66,30.40,10.0,Calm,Calm,-,N/A,,Clear,0,2012-12-05 07:15:00
12:55 AM,24.8,19.6,81,30.38,10.0,Calm,Calm,-,N/A,,Clear,0,2012-12-05 07:55:00
1:15 AM,27.3,19.8,73,30.38,10.0,Calm,Calm,-,N/A,,Clear,0,2012-12-05 08:15:00
1:35 AM,27.7,19.6,72,30.36,10.0,Calm,Calm,-,N/A,,Clear,0,2012-12-05 08:35:00
1:55 AM,25.3,19.8,79,30.37,10.0,Calm,Calm,-,N/A,,Clear,0,2012-12-05 08:55:00
2:15 AM,25.2,19.4,79,30.38,10.0,Calm,Calm,-,N/A,,Clear,0,2012-12-05 09:15:00
2:35 AM,24.4,18.3,78,30.38,10.0,Calm,Calm,-,N/A,,Clear,0,2012-12-05 09:35:00
2:55 AM,25.0,19.0,78,30.38,10.0,Calm,Calm,-,N/A,,Clear,0,2012-12-05 09:55:00
3:15 AM,24.6,19.0,79,30.38,10.0,Calm,Calm,-,N/A,,Clear,0,2012-12-05 10:15:00
3:35 AM,25.2,19.6,79,30.38,10.0,Calm,Calm,-,N/A,,Clear,0,2012-12-05 10:35:00
3:55 AM,23.7,19.2,83,30.38,10.0,Calm,Calm,-,N/A,,Clear,0,2012-12-05 10:55:00
4:15 AM,25.3,18.9,76,30.38,10.0,Calm,Calm,-,N/A,,Clear,0,2012-12-05 11:15:00
4:35 AM,22.6,18.7,85,30.37,10.0,Calm,Calm,-,N/A,,Clear,0,2012-12-05 11:35:00
4:55 AM,23.7,19.6,84,30.38,10.0,Calm,Calm,-,N/A,,Clear,0,2012-12-05 11:55:00
5:15 AM,24.3,19.2,81,30.38,10.0,Calm,Calm,-,N/A,,Clear,0,2012-12-05 12:15:00
5:35 AM,25.9,19.9,78,30.36,10.0,Calm,Calm,-,N/A,,Clear,0,2012-12-05 12:35:00
5:55 AM,23.9,19.4,83,30.36,10.0,Calm,Calm,-,N/A,,Clear,0,2012-12-05 12:55:00
7:35 AM,27.5,20.1,74,30.36,10.0,Calm,Calm,-,N/A,,Clear,0,2012-12-05 14:35:00
7:55 AM,25.7,20.5,81,30.36,10.0,Calm,Calm,-,N/A,,Clear,0,2012-12-05 14:55:00
8:15 AM,27.9,20.5,74,30.36,10.0,Calm,Calm,-,N/A,,Clear,0,2012-12-05 15:15:00
8:35 AM,32.4,22.6,67,30.36,10.0,Calm,Calm,-,N/A,,Clear,0,2012-12-05 15:35:00
8:55 AM,34.2,22.1,61,30.36,10.0,Calm,Calm,-,N/A,,Clear,0,2012-12-05 15:55:00
9:15 AM,36.7,23.0,58,30.35,10.0,Calm,Calm,-,N/A,,Clear,0,2012-12-05 16:15:00
9:35 AM,40.3,22.3,49,30.35,10.0,Calm,Calm,-,N/A,,Clear,0,2012-12-05 16:35:00
9:55 AM,42.3,22.6,46,30.34,10.0,Calm,Calm,-,N/A,,Clear,0,2012-12-05 16:55:00
10:15 AM,43.5,22.1,43,30.33,10.0,Calm,Calm,-,N/A,,Clear,0,2012-12-05 17:15:00
10:35 AM,44.6,21.2,39,30.33,10.0,Calm,Calm,-,N/A,,Clear,0,2012-12-05 17:35:00
10:55 AM,47.3,20.1,34,30.32,10.0,Calm,Calm,-,N/A,,Clear,0,2012-12-05 17:55:00
11:15 AM,48.4,18.9,31,30.31,10.0,South,3.5,-,N/A,,Clear,170,2012-12-05 18:15:00
11:35 AM,48.7,18.7,30,30.29,10.0,Calm,Calm,-,N/A,,Clear,0,2012-12-05 18:35:00
11:55 AM,49.3,19.4,31,30.28,10.0,SSW,4.6,-,N/A,,Clear,200,2012-12-05 18:55:00
12:15 PM,49.5,19.8,31,30.26,10.0,South,5.8,-,N/A,,Clear,190,2012-12-05 19:15:00
12:35 PM,50.2,19.9,30,30.25,10.0,SSE,4.6,-,N/A,,Clear,160,2012-12-05 19:35:00
12:55 PM,51.8,19.6,28,30.24,10.0,SSE,4.6,-,N/A,,Clear,160,2012-12-05 19:55:00
1:15 PM,52.3,18.1,26,30.22,10.0,South,4.6,-,N/A,,Clear,180,2012-12-05 20:15:00
1:35 PM,52.3,16.7,24,30.21,10.0,SSW,3.5,-,N/A,,Clear,210,2012-12-05 20:35:00
1:55 PM,52.7,16.3,24,30.19,10.0,SSW,4.6,-,N/A,,Clear,210,2012-12-05 20:55:00
2:15 PM,53.1,16.7,24,30.19,10.0,South,6.9,-,N/A,,Clear,190,2012-12-05 21:15:00
2:35 PM,52.7,16.7,24,30.19,10.0,SSW,5.8,-,N/A,,Clear,210,2012-12-05 21:35:00
2:55 PM,53.4,17.1,24,30.19,10.0,SSW,8.1,-,N/A,,Scattered Clouds,210,2012-12-05 21:55:00
3:15 PM,52.7,16.2,24,30.19,10.0,SSW,5.8,-,N/A,,Clear,210,2012-12-05 22:15:00
3:35 PM,52.0,16.7,25,30.19,10.0,SSW,4.6,-,N/A,,Scattered Clouds,210,2012-12-05 22:35:00
3:55 PM,51.8,16.9,25,30.19,10.0,SSW,6.9,-,N/A,,Mostly Cloudy,210,2012-12-05 22:55:00
4:15 PM,51.6,14.5,23,30.18,10.0,SW,4.6,-,N/A,,Overcast,220,2012-12-05 23:15:00
4:35 PM,50.2,14.9,25,30.18,10.0,SW,4.6,-,N/A,,Scattered Clouds,230,2012-12-05 23:35:00
5:15 PM,42.4,15.4,34,30.17,10.0,Calm,Calm,-,N/A,,Clear,0,2012-12-06 00:15:00
5:35 PM,41.4,16.0,36,30.17,10.0,Calm,Calm,-,N/A,,Clear,0,2012-12-06 00:35:00
5:55 PM,37.9,17.4,43,30.18,10.0,Calm,Calm,-,N/A,,Clear,0,2012-12-06 00:55:00
6:15 PM,38.5,17.2,42,30.17,10.0,Calm,Calm,-,N/A,,Clear,0,2012-12-06 01:15:00
6:35 PM,37.9,17.8,44,30.17,10.0,NE,4.6,-,N/A,,Clear,40,2012-12-06 01:35:00
6:55 PM,34.0,18.0,52,30.17,10.0,NNE,3.5,-,N/A,,Clear,30,2012-12-06 01:55:00
7:15 PM,34.5,18.0,51,30.17,10.0,Calm,Calm,-,N/A,,Clear,0,2012-12-06 02:15:00
7:35 PM,34.5,18.7,52,30.17,10.0,NNE,5.8,-,N/A,,Clear,30,2012-12-06 02:35:00
7:55 PM,36.0,19.0,50,30.17,10.0,Calm,Calm,-,N/A,,Clear,0,2012-12-06 02:55:00
8:15 PM,34.3,19.0,54,30.17,10.0,NNE,5.8,-,N/A,,Clear,30,2012-12-06 03:15:00
8:35 PM,33.6,18.9,55,30.17,10.0,Calm,Calm,-,N/A,,Clear,0,2012-12-06 03:35:00
8:55 PM,33.8,18.7,54,30.16,10.0,Calm,Calm,-,N/A,,Clear,0,2012-12-06 03:55:00
9:15 PM,31.8,18.9,59,30.16,10.0,Calm,Calm,-,N/A,,Scattered Clouds,0,2012-12-06 04:15:00
9:35 PM,32.2,18.5,57,30.16,10.0,Calm,Calm,-,N/A,,Scattered Clouds,0,2012-12-06 04:35:00
9:55 PM,30.7,18.9,61,30.15,10.0,Calm,Calm,-,N/A,,Clear,0,2012-12-06 04:55:00
10:15 PM,32.4,18.7,57,30.15,10.0,Calm,Calm,-,N/A,,Clear,0,2012-12-06 05:15:00
10:35 PM,31.3,18.9,60,30.15,10.0,Calm,Calm,-,N/A,,Clear,0,2012-12-06 05:35:00
10:55 PM,29.5,18.7,64,30.15,10.0,Calm,Calm,-,N/A,,Clear,0,2012-12-06 05:55:00
11:15 PM,30.6,19.0,62,30.14,10.0,Calm,Calm,-,N/A,,Clear,0,2012-12-06 06:15:00
11:35 PM,31.3,19.6,62,30.14,10.0,Calm,Calm,-,N/A,,Clear,0,2012-12-06 06:35:00
11:55 PM,30.0,19.4,65,30.13,10.0,Calm,Calm,-,N/A,,Clear,0,2012-12-06 06:55:00